Starlink 3716

operational
NORAD ID: 52092 Int'l Des: 2022-029 Owner: SPXS Country: US Constellation: starlink
LEOCIRCULAR

关于 Starlink 3716

正在加载描述...

实时位置

正在加载3D地球...

即将过境

高度历史

Altitude vs Time

uPlot chart will show altitude changes over time

两行轨道根数

1 52092U 22029E 26036.95532828 .00000511 00000-0 50228-4 0 9990
2 52092 53.2153 231.5823 0001484 88.9479 271.1683 15.08839933215864
Epoch: Feb 5, 2026 • Age: 8 hours

当前状态

高度 544.8 km
速度 7.60 km/s
星下点 50.92°N, 97.2°E
发射日期 Mar 19, 2022
运行时间 3.8 years
类型 internet

技术详情

分类 Payload
质量 297.00 kg
干质量 275.00 kg
总质量 297.00 kg
长度 0.20 m
直径 2.80 m
跨度 9.00 m
形状 Box + pan
制造商 SPXS
平台类型 Starlink
阶段状态 In Orbit
所有者/国家 SPXS/US

大型星座

Loading constellations...